This is the latest recevied weather packets stored in our database for station/object DC4XK-10. If no packets are shown the sender has not sent any weather packets the latest 10 day(s).
| Time | Temp. | Humidity | Pressure | Rain* | Wind** | Luminosity | Snow |
|---|---|---|---|---|---|---|---|
| 1777903730 | 18.89° C | 64% | 1011.5 hPa | 0 mm | 1.34 m/s, 326° | - | - |
| 1777903131 | 17.78° C | 68% | 1011.4 hPa | 0 mm | 1.79 m/s, 312° | - | - |
| 1777901930 | 17.22° C | 69% | 1011.5 hPa | 0 mm | 1.79 m/s, 334° | - | - |
| 1777901331 | 16.67° C | 70% | 1011.5 hPa | 0 mm | 3.13 m/s, 324° | - | - |
| 1777900731 | 16.67° C | 71% | 1011.5 hPa | 0 mm | 1.79 m/s, 322° | - | - |
| 1777900130 | 17.22° C | 68% | 1011.6 hPa | 0 mm | 2.68 m/s, 317° | - | - |
| 1777898331 | 16.11° C | 73% | 1011.4 hPa | 0 mm | 1.34 m/s, 281° | - | - |
| 1777897731 | 16.67° C | 72% | 1011.4 hPa | 0 mm | 1.34 m/s, 246° | - | - |
| 1777897131 | 16.11° C | 76% | 1011.4 hPa | 0 mm | 0 m/s | - | - |
| 1777896531 | 16.67° C | 73% | 1011.4 hPa | 0 mm | 0.89 m/s, 251° | - | - |
| 1777895932 | 16.67° C | 74% | 1011.2 hPa | 0 mm | 1.79 m/s, 264° | - | - |
| 1777894731 | 16.11° C | 75% | 1011.2 hPa | 0 mm | 0.45 m/s, 195° | - | - |
| 1777894133 | 16.67° C | 74% | 1011.2 hPa | 0 mm | 0.89 m/s, 183° | - | - |
| 1777893531 | 15.56° C | 76% | 1011.1 hPa | 0 mm | 0.89 m/s, 289° | - | - |
| 1777892930 | 16.11° C | 74% | 1011.2 hPa | 0 mm | 1.34 m/s, 315° | - | - |
| 1777891731 | 16.11° C | 75% | 1011.2 hPa | 0 mm | 1.79 m/s, 329° | - | - |
| 1777889931 | 15.56° C | 77% | 1011.2 hPa | 0 mm | 1.34 m/s, 306° | - | - |
| 1777889331 | 15.56° C | 77% | 1011 hPa | 0 mm | 0.45 m/s, 158° | - | - |
| 1777888131 | 14.44° C | 79% | 1011.2 hPa | 0 mm | 0.89 m/s, 285° | - | - |
| 1777887531 | 14.44° C | 79% | 1011.1 hPa | 0 mm | 1.79 m/s, 314° | - | - |
| 1777886931 | 14.44° C | 79% | 1011.2 hPa | 0 mm | 1.34 m/s, 321° | - | - |
| 1777886331 | 14.44° C | 78% | 1011.1 hPa | 0 mm | 1.79 m/s, 307° | - | - |
| 1777885731 | 13.89° C | 81% | 1010.8 hPa | 0 mm | 1.79 m/s, 291° | - | - |
| 1777885130 | 13.89° C | 82% | 1011 hPa | 0 mm | 0.89 m/s, 203° | - | - |
| 1777884531 | 13.33° C | 82% | 1010.8 hPa | 0 mm | 1.34 m/s, 232° | - | - |
* Rain latest hour (hover to see other rain measurements)
** Current wind speed in m/s (hover to see current wind gust speed)